Date String (YYYY-MM-DD hh:mm:ss) UTC,Instrument flags,Ambient pressure (hPa),Sample flow (lpm),Bypass flow (lpm),Sample temperature (°C),Ambient temperature (°C),ASC tube jacket temperature (°C),LED temperature (°C),Box temperature (°C),Sample RH (%),Span deviation,Mass concentration (μg/m³),Mass concentration (μg/m³),Mass concentration (μg/m³)
DateTimeUTC,F1_M11,P_M11,Q1_M11,Q2_M11,T1_M11,T2_M11,T3_M11,T4_M11,T5_M11,U1_M11,ZSPAN_M11,X0_M11,X2_M11,X1_M11
2021-10-31 04:00:00,,0829.8,5.00,0.00,30.3,29.4,00.0,39.4,32.0,16.4,0000.0,0004.55,0001.82,0001.05
2021-10-31 04:01:00,,0829.9,4.99,0.00,30.3,29.4,00.0,39.4,32.0,16.4,0000.0,0005.19,0001.86,0001.06
2021-10-31 04:02:00,,0829.9,4.99,0.00,30.3,29.4,00.0,39.4,32.0,16.4,0000.0,0005.55,0001.96,0001.08
2021-10-31 04:03:00,,0829.9,4.99,0.00,30.3,29.4,00.0,39.4,32.0,16.4,0000.0,0005.62,0001.99,0001.09
2021-10-31 04:04:00,,0829.9,5.00,0.00,30.3,29.4,00.0,39.4,32.0,16.4,0000.0,0006.23,0001.99,0001.10
2021-10-31 04:05:00,,0829.9,4.98,0.00,30.3,29.4,00.0,39.4,32.0,16.4,0000.0,0006.25,0001.99,0001.10
2021-10-31 04:06:00,,0829.8,4.99,0.00,30.3,29.3,00.0,39.4,32.0,16.4,0000.0,0006.36,0002.03,0001.10
2021-10-31 04:07:00,,0829.8,5.00,0.00,30.3,29.3,00.0,39.4,32.0,16.4,0000.0,0007.01,0002.10,0001.10
2021-10-31 04:08:00,,0829.9,5.00,0.00,30.3,29.3,00.0,39.4,32.0,16.4,0000.0,0006.75,0002.10,0001.10
2021-10-31 04:09:00,,0829.9,4.99,0.00,30.3,29.3,00.0,39.3,32.0,16.4,0000.0,0006.61,0002.14,0001.12
2021-10-31 04:10:00,,0829.9,5.01,0.00,30.3,29.3,00.0,39.3,32.0,16.4,0000.0,0006.53,0002.14,0001.13
2021-10-31 04:11:00,,0829.9,4.98,0.00,30.2,29.3,00.0,39.3,32.0,16.5,0000.0,0006.64,0002.16,0001.15
2021-10-31 04:12:00,,0829.9,5.01,0.00,30.2,29.3,00.0,39.3,32.0,16.5,0000.0,0007.05,0002.15,0001.16
2021-10-31 04:13:00,,0829.9,5.00,0.00,30.2,29.3,00.0,39.3,32.0,16.5,0000.0,0007.39,0002.10,0001.16
2021-10-31 04:14:00,,0829.9,5.00,0.00,30.2,29.3,00.0,39.3,32.0,16.5,0000.0,0007.86,0002.15,0001.18
2021-10-31 04:15:00,,0829.9,5.00,0.00,30.2,29.3,00.0,39.3,32.0,16.5,0000.0,0008.23,0002.22,0001.21
2021-10-31 04:16:00,,0829.9,5.00,0.00,30.2,29.3,00.0,39.3,32.0,16.5,0000.0,0008.49,0002.34,0001.24
2021-10-31 04:17:00,,0830.0,5.00,0.00,30.2,29.3,00.0,39.3,32.0,16.5,0000.0,0009.04,0002.43,0001.28
2021-10-31 04:18:00,,0830.0,5.01,0.00,30.2,29.3,00.0,39.3,32.0,16.5,0000.0,0008.84,0002.45,0001.32
2021-10-31 04:19:00,,0830.0,5.01,0.00,30.2,29.3,00.0,39.3,31.9,16.4,0000.0,0009.02,0002.49,0001.36
2021-10-31 04:20:00,,0830.1,5.00,0.00,30.2,29.3,00.0,39.3,31.9,16.4,0000.0,0009.46,0002.57,0001.39
2021-10-31 04:21:00,,0830.1,4.99,0.00,30.2,29.3,00.0,39.3,31.9,16.4,0000.0,0009.91,0002.67,0001.41
2021-10-31 04:22:00,,0830.1,5.00,0.00,30.2,29.3,00.0,39.3,31.9,16.4,0000.0,0010.80,0002.77,0001.43
2021-10-31 04:23:00,,0830.0,5.00,0.00,30.2,29.3,00.0,39.3,31.9,16.4,0000.0,0011.02,0002.84,0001.45
2021-10-31 04:24:00,,0830.0,5.00,0.00,30.2,29.3,00.0,39.3,31.9,16.4,0000.0,0010.78,0002.90,0001.48
2021-10-31 04:25:00,,0829.9,5.01,0.00,30.2,29.3,00.0,39.3,31.9,16.4,0000.0,0010.61,0002.95,0001.50
2021-10-31 04:26:00,,0830.0,5.00,0.00,30.2,29.2,00.0,39.3,31.9,16.4,0000.0,0010.35,0002.94,0001.53
2021-10-31 04:27:00,,0829.9,4.99,0.00,30.2,29.3,00.0,39.3,31.9,16.3,0000.0,0010.13,0002.93,0001.56
2021-10-31 04:28:00,,0830.0,5.00,0.00,30.2,29.3,00.0,39.3,31.9,16.3,0000.0,0009.86,0002.86,0001.59
2021-10-31 04:29:00,,0830.0,5.01,0.00,30.1,29.2,00.0,39.2,31.9,16.3,0000.0,0010.07,0002.79,0001.60
2021-10-31 04:30:00,,0830.0,5.00,0.00,30.1,29.2,00.0,39.2,31.9,16.3,0000.0,0010.05,0002.80,0001.62
2021-10-31 04:31:00,,0830.1,5.00,0.00,30.1,29.2,00.0,39.2,31.8,16.3,0000.0,0009.57,0002.78,0001.65
2021-10-31 04:32:00,,0830.0,5.01,0.00,30.1,29.2,00.0,39.2,31.8,16.3,0000.0,0009.12,0002.73,0001.70
2021-10-31 04:33:00,,0830.0,5.00,0.00,30.1,29.2,00.0,39.2,31.8,16.2,0000.0,0008.40,0002.71,0001.73
2021-10-31 04:34:00,,0830.0,5.01,0.00,30.1,29.2,00.0,39.2,31.8,16.2,0000.0,0007.53,0002.67,0001.75
2021-10-31 04:35:00,,0829.9,4.99,0.00,30.1,29.2,00.0,39.2,31.8,16.2,0000.0,0007.49,0002.66,0001.77
2021-10-31 04:36:00,,0830.0,5.00,0.00,30.1,29.2,00.0,39.2,31.8,16.2,0000.0,0009.28,0002.70,0001.78
2021-10-31 04:37:00,,0830.0,5.00,0.00,30.1,29.1,00.0,39.2,31.8,16.1,0000.0,0009.82,0002.75,0001.80
2021-10-31 04:38:00,,0830.0,5.00,0.00,30.0,29.1,00.0,39.2,31.8,16.1,0000.0,0009.86,0002.79,0001.80
2021-10-31 04:39:00,,0830.1,5.01,0.00,30.0,29.1,00.0,39.2,31.7,16.1,0000.0,0009.64,0002.82,0001.80
2021-10-31 04:40:00,,0830.1,4.98,0.00,30.0,29.1,00.0,39.2,31.7,16.2,0000.0,0009.33,0002.90,0001.81
2021-10-31 04:41:00,,0830.1,5.00,0.00,30.0,29.1,00.0,39.1,31.7,16.2,0000.0,0009.18,0002.91,0001.81
2021-10-31 04:42:00,,0830.1,5.01,0.00,30.0,29.1,00.0,39.1,31.7,16.2,0000.0,0009.04,0002.84,0001.79
2021-10-31 04:43:00,,0830.1,5.00,0.00,30.0,29.1,00.0,39.1,31.7,16.2,0000.0,0008.94,0002.81,0001.78
2021-10-31 04:44:00,,0830.1,5.00,0.00,30.0,29.0,00.0,39.1,31.7,16.1,0000.0,0009.15,0002.80,0001.77
2021-10-31 04:45:00,,0830.1,5.00,0.00,30.0,29.0,00.0,39.1,31.7,16.0,0000.0,0009.46,0002.76,0001.76
2021-10-31 04:46:00,,0830.1,4.99,0.00,29.9,29.0,00.0,39.1,31.7,16.0,0000.0,0009.46,0002.76,0001.76
2021-10-31 04:47:00,,0830.1,5.01,0.00,29.9,29.0,00.0,39.1,31.6,16.0,0000.0,0007.08,0002.69,0001.78
2021-10-31 04:48:00,,0830.0,4.99,0.00,29.9,29.0,00.0,39.1,31.6,16.0,0000.0,0005.97,0002.66,0001.77
2021-10-31 04:49:00,,0830.1,5.00,0.00,29.9,29.0,00.0,39.1,31.6,16.0,0000.0,0005.73,0002.60,0001.77
2021-10-31 04:50:00,,0830.1,5.01,0.00,29.9,29.0,00.0,39.1,31.6,16.0,0000.0,0005.60,0002.55,0001.76
2021-10-31 04:51:00,,0830.1,5.00,0.00,29.9,29.0,00.0,39.0,31.6,15.9,0000.0,0005.46,0002.48,0001.75
2021-10-31 04:52:00,,0830.1,5.00,0.00,29.9,28.9,00.0,39.0,31.6,15.9,0000.0,0007.83,0002.42,0001.76
2021-10-31 04:53:00,,0830.1,4.99,0.00,29.9,28.9,00.0,39.0,31.6,15.9,0000.0,0008.31,0002.49,0001.78
2021-10-31 04:54:00,,0830.0,5.00,0.00,29.9,28.9,00.0,39.0,31.5,15.9,0000.0,0008.65,0002.55,0001.78
2021-10-31 04:55:00,,0830.1,5.00,0.00,29.8,28.9,00.0,39.0,31.5,15.9,0000.0,0008.90,0002.55,0001.79
2021-10-31 04:56:00,,0830.1,5.00,0.00,29.8,28.9,00.0,39.0,31.5,15.9,0000.0,0008.96,0002.59,0001.82
2021-10-31 04:57:00,,0830.0,4.99,0.00,29.8,28.9,00.0,39.0,31.5,15.9,0000.0,0008.92,0002.59,0001.84
2021-10-31 04:58:00,,0830.1,5.00,0.00,29.8,28.9,00.0,39.0,31.5,15.9,0000.0,0009.59,0002.63,0001.84
2021-10-31 04:59:00,,0830.1,5.01,0.00,29.8,28.8,00.0,38.9,31.5,15.9,0000.0,0010.23,0002.65,0001.85
